#timestamp,LO_Frequency,Hit,StdDev 
1547953215.1,286046999.6,N
1547953216.0,286046999.6,N
1547953235.0,286046998.2,N
1547953235.9,286046998.2,N
1547953255.8,286047001.2,N
1547953275.6,286046999.0,N
1547953295.4,286047000.5,N
1547953315.3,286047000.9,N
1547953335.1,286047000.6,N
1547953355.9,286046998.2,N
1547953375.7,286047002.8,N
1547953395.5,286047002.3,N
1547953415.4,286047000.2,N
1547953435.2,286047002.7,N
1547953455.1,286047000.2,N
1547953456.0,286047000.2,N
1547953475.8,286047002.3,N
1547953495.6,286047001.2,N
1547953515.5,286047000.8,N
1547953535.3,286046998.4,N
1547953555.1,286046996.9,N
1547953575.9,286046997.1,N
1547953595.7,286046997.3,N
1547953615.6,286046998.4,N
1547953635.4,286047001.2,N
1547953655.2,286046998.2,N
1547953675.1,286046998.3,N
1547953676.0,286046998.3,N
1547953695.8,286046998.9,N
1547953715.6,286046998.2,N
1547953735.5,286046999.2,N
1547953755.3,286046998.1,N
1547953775.2,286046999.2,N
1547953795.9,286046999.6,N
1547953815.7,286046998.5,N
1547953835.6,286046996.8,N
1547953855.4,286046996.5,N
1547953875.3,286046999.3,N
1547953895.1,286046998.6,N
1547953896.0,286046998.6,N
1547953915.8,286047000.0,N
1547953935.7,286047002.6,N
1547953955.5,286047002.2,N
1547953975.3,286047002.3,N
1547953995.2,286047000.7,N
1547954015.0,286047000.5,N
1547954015.9,286047000.5,N
1547954035.8,286047000.6,N
1547954055.6,286047001.2,N
1547954075.4,286047000.3,N
1547954095.3,286047000.1,N
1547954115.1,286047000.7,N
1547954135.8,286047001.1,N
1547954155.7,286046996.8,N
1547954175.5,286046999.0,N
1547954195.4,286046998.7,N
1547954215.2,286046999.1,N
1547954235.0,286046997.2,N
1547954235.9,286046997.2,N
1547954255.8,286046999.5,N
1547954275.6,286046999.3,N
1547954295.4,286047000.7,N
1547954315.3,286047001.2,N
1547954335.1,286047000.8,N
1547954355.9,286046999.0,N
1547954375.7,286046999.2,N
1547954395.5,286046997.8,N
1547954415.4,286046997.6,N
1547954435.2,286046995.8,N
1547954455.0,286046993.6,Y
1547954456.0,286046993.6,P
1547954475.8,286046993.8,N
1547954495.6,286046995.8,N
1547954515.5,286046996.1,N
1547954535.3,286046996.0,N
1547954555.1,286046996.3,N
1547954575.9,286046995.2,N
1547954595.7,286046997.6,N
1547954615.5,286046996.5,N
1547954635.4,286046998.9,N
1547954655.2,286046999.5,N
1547954675.4,286046998.5,N
1547954695.2,286047000.9,N
1547954715.1,286047004.3,N
1547954716.0,286047004.3,N
1547954735.8,286047003.4,N
1547954755.6,286047003.2,N
1547954775.5,286047003.4,N
1547954795.3,286047005.4,N
1547954815.2,286047004.3,N
1547954835.0,286047004.1,N
1547954835.9,286047004.1,N
1547954855.7,286047001.9,N
1547954875.6,286047000.7,N
1547954895.4,286046999.5,N
1547954915.3,286046999.2,N
1547954935.1,286046999.0,N
1547954936.0,286046999.0,N
1547954955.8,286046996.7,N
1547954975.7,286046996.7,N
1547954995.5,286046997.1,N
1547955015.4,286046996.7,N
1547955035.2,286046997.2,N
1547955055.0,286046996.7,N
1547955055.9,286046996.7,N
1547955075.8,286046996.5,N
1547955095.6,286046999.4,N
1547955115.4,286046997.2,N
1547955135.3,286046997.1,N
1547955155.7,286046997.4,N
1547955175.5,286046995.5,N
1547955195.3,286046995.7,N
1547955215.2,286046995.9,N
1547955235.0,286046994.0,N
1547955235.9,286046994.0,N
1547955255.8,286046994.3,N
1547955275.6,286046986.3,Y
1547955295.4,286046996.0,P
1547955315.3,286046993.7,P
1547955335.1,286046994.0,P
1547955355.9,286046994.0,Y
1547955375.7,286046998.8,P
1547955395.5,286046996.9,N
1547955415.4,286046997.2,N
1547955435.2,286046995.0,Y
1547955455.0,286046999.0,P
1547955456.0,286046999.0,N
1547955475.8,286046999.6,N
1547955495.6,286046999.5,N
1547955515.3,286046999.8,N
1547955535.1,286047002.0,N
1547955555.9,286047001.0,N
1547955575.7,286046998.8,N
1547955595.6,286046996.7,N
1547955615.4,286046997.5,N
1547955635.2,286046993.6,Y
1547955655.1,286046994.0,P
1547955656.0,286046994.0,N
1547955675.8,286046993.5,N
1547955695.7,286046994.9,N
1547955715.5,286046997.7,N
1547955735.8,286046997.4,N
1547955755.6,286046995.3,N
1547955775.5,286046997.4,N
1547955795.3,286046996.7,N
1547955815.1,286046997.4,N
1547955835.9,286046995.0,N
1547955855.7,286046994.2,Y
1547955875.6,286046997.3,P
1547955895.4,286046996.9,P
1547955915.2,286046994.9,P
1547955935.1,286046996.3,Y
1547955936.0,286046996.3,P
1547955955.8,286046998.6,P
1547955975.7,286047000.2,N
1547955995.5,286047001.2,N
1547956015.3,286047000.1,N
1547956035.2,286047000.0,N
1547956055.0,286047000.2,N
1547956055.9,286047000.2,N
1547956075.7,286047000.9,N
1547956095.6,286047000.1,N
1547956115.4,286046999.9,N
1547956135.3,286046999.8,N
1547956155.1,286046999.8,N
1547956156.0,286046999.8,N
1547956175.8,286047000.3,N
1547956195.7,286046997.1,N
1547956215.5,286046999.4,N
1547956235.3,286046997.6,N
1547956255.2,286046994.1,Y
1547956275.0,286046996.4,P
1547956275.9,286046996.4,N
1547956295.8,286046998.0,N
1547956315.6,286046999.4,N
1547956335.4,286047000.8,N
1547956355.5,286046999.0,N
1547956375.3,286046998.8,N
1547956395.2,286047001.2,N
1547956415.0,286047001.1,N
1547956415.9,286047001.1,N
1547956435.7,286046998.2,N
1547956455.6,286046998.2,N
1547956475.4,286046999.0,N
1547956495.3,286046995.3,Y
1547956515.1,286046999.5,P
1547956535.8,286046998.6,P
1547956555.3,286046999.2,N
1547956575.1,286046997.8,Y
1547956595.9,286046999.4,P
1547956615.7,286046999.3,P
1547956635.6,286046997.0,P
1547956655.4,286046997.8,N
1547956675.2,286046999.4,N
1547956695.1,286047000.7,N
1547956696.0,286047000.7,N
1547956715.8,286047001.9,N
1547956735.7,286047001.4,N
1547956755.5,286047001.4,N
1547956775.3,286047001.6,N
1547956795.2,286047003.9,N
